Weather in Mastakh

Russia / Sakha (Yakutia) Republic     63°43′19″N   124°11′32″E
temp.,
°C
wind,
m/s
gust,
m/s
humid.,
%
clouds,
%
prec.,
mm/h
press.,
hPa
HPBL,
m
23 september, thu
thu2300:00+8ese51166100 0.0 1013354
03:00+7sse4879100 0.1 1014465
06:00+5wsw4893100 2.3 1018547
09:00+6w4989100 2.3 1021784
12:00+9w356375 0.0 10231041
15:00+10wnw235099 0.0 10241267
18:00+7nw1163100 0.0 102410
21:00+5nw1173100 0.0 102510
24 september, fri
fri2400:00+4e1187100 0.0 102410
03:00+5ne1184100 0.0 102421
06:00+4n3784100 0.0 1023226
09:00+5nne3779100 0.1 1022453
12:00+5nne4683100 0.8 1021645
15:00+5n4979100 2.4 1022840
18:00+6nnw4972100 0.5 1022765
21:00+5nw4973100 0.5 1023458
25 september, sat
sat2500:00+4wnw4107182 0.0 1024393
03:00+3wnw4107984 0.0 1025324
06:00+1wnw410875 0.0 1026237
09:00+4nw410715 0.0 1028336
12:00+7nw61050100 0.0 1027942
15:00+7nnw6114995 0.0 10281041
18:00+5nnw5115838 0.0 1029746
21:00+2nw4107148 0.0 1030275
26 september, sun
sun2600:000nw398563 0.0 1030185
03:000nw4108818 0.0 1030255
06:00−1nw411885 0.0 1030338
09:00+2nnw511705 0.0 1029559
12:00+5nnw58555 0.0 1028888
15:00+7n67475 0.0 10261087
18:00+4n47618 0.0 1025260
21:00+1n387953 0.0 1024214
27 september, mon
mon2700:00−1n37845 0.0 1024140
03:00−2n269734 0.0 1022155
06:00−2n379842 0.0 1021167
09:000nne358661 0.0 1020348
12:00+4nne346545 0.0 1019748
15:00+6ne455830 0.0 10171012
18:00+4nne37715 0.0 1016185
21:000n38860 0.0 1016169